TJS-14 (62804 NORAD) Tracking and Keplerian Element Data

This shows tracking and keplerian element data for the satellite.

Feedback or suggestion? Click here.




ElementValue
Catalog62804
NameTJS-14
Epoch Orbit0
Epoch Day23.82423642
Epoch Year2025
RAAN353.3842
Inclination28.4771
Eccentricity0.7305768
Argument of Perigee179.8015
Mean Anonmoly132.0558
Mean Motion2.28112302
Decay Rate2.27E-06
L11 62804U 25017A 25023.82423642 .00000227 -39377-6 00000+0 0 9994
L22 62804 28.4771 353.3842 7305768 179.8015 132.0558 2.28112302 01



Live tracking and technical data element details for TJS-14 (NORAD 62804). TJS-14 can be tracked NOW for your location showing map with azimuth and elevation plus other details from your city location.







IsCatalogInMostPopularTable: catalog: 62804, numindb: 231
Update: records affected: 1



GetName: 62804 TJS-14

Hit Count: updated at: Mon, 08 Dec 2025 09:46:49 GMT